This is the latest recevied weather packets stored in our database for station/object KD2DXJ. If no packets are shown the sender has not sent any weather packets the latest 10 day(s).
| Time | Temp. | Humidity | Pressure | Rain* | Wind** | Luminosity | Snow |
|---|---|---|---|---|---|---|---|
| 1777905074 | 13.89° C | 61% | 1005.4 hPa | 0 mm | - | 521 W/m² | - |
| 1777904771 | 13.89° C | 66% | 1005.4 hPa | 0 mm | - | 544 W/m² | - |
| 1777904468 | 13.33° C | 65% | 1005.4 hPa | 0 mm | - | 521 W/m² | - |
| 1777904164 | 13.33° C | 69% | 1005.6 hPa | 0 mm | - | 378 W/m² | - |
| 1777903861 | 12.78° C | 71% | 1005.4 hPa | 0 mm | - | 458 W/m² | - |
| 1777903558 | 12.22° C | 67% | 1005.6 hPa | 0 mm | - | 490 W/m² | - |
| 1777903254 | 12.22° C | 71% | 1005.5 hPa | 0 mm | - | 252 W/m² | - |
| 1777902950 | 11.67° C | 71% | 1005.8 hPa | 0 mm | - | 231 W/m² | - |
| 1777902647 | 11.67° C | 71% | 1005.7 hPa | 0 mm | - | 246 W/m² | - |
| 1777902344 | 11.67° C | 73% | 1005.9 hPa | 0 mm | - | 186 W/m² | - |
| 1777902042 | 11.11° C | 73% | 1005.7 hPa | 0 mm | - | 167 W/m² | - |
| 1777901740 | 11.11° C | 74% | 1005.7 hPa | 0 mm | - | 142 W/m² | - |
| 1777901437 | 11.11° C | 75% | 1005.6 hPa | 0 mm | - | 180 W/m² | - |
| 1777901134 | 11.11° C | 76% | 1005.7 hPa | 0 mm | - | 151 W/m² | - |
| 1777900832 | 10.56° C | 78% | 1005.7 hPa | 0 mm | - | 130 W/m² | - |
| 1777900529 | 10.56° C | 77% | 1005.7 hPa | 0 mm | - | 196 W/m² | - |
| 1777900226 | 10.56° C | 79% | 1005.7 hPa | 0 mm | - | 182 W/m² | - |
| 1777899922 | 10.56° C | 80% | 1005.6 hPa | 0 mm | - | 173 W/m² | - |
| 1777899620 | 10° C | 80% | 1005.5 hPa | 0 mm | - | 194 W/m² | - |
| 1777899316 | 10° C | 83% | 1005.7 hPa | 0 mm | - | 153 W/m² | - |
| 1777899015 | 9.44° C | 84% | 1005.7 hPa | 0 mm | - | 129 W/m² | - |
| 1777898711 | 9.44° C | 84% | 1005.6 hPa | 0 mm | - | 128 W/m² | - |
| 1777898409 | 8.89° C | 85% | 1005.6 hPa | 0 mm | - | 102 W/m² | - |
| 1777898106 | 8.33° C | 89% | 1005.8 hPa | 0 mm | - | 131 W/m² | - |
| 1777897803 | 8.33° C | 88% | 1006 hPa | 1.27 mm | - | 55 W/m² | - |
* Rain latest hour (hover to see other rain measurements)
** Current wind speed in m/s (hover to see current wind gust speed)